freeonlinegames.com alexa rank chart, freeonlinegames.com alexa rank daily changes

freeonlinegames.com alexa rank chart, freeonlinegames.com alexa rank daily changes

freeonlinegames.com
Actual rank:
32 644

RANK HISTORY

Date Rank Diff
2017/10/21 32 644 +250
2017/10/20 32 394 -54
2017/10/19 32 448 +311
2017/10/18 32 137 +367
2017/10/17 31 770 -273
2017/10/16 32 043 -316
2017/10/14 32 359 +94
2017/10/13 32 265 +276
2017/10/12 31 989 +493
2017/10/11 31 496 +582
2017/10/10 30 914 -409
2017/10/09 31 323 -11
2017/10/08 31 334 +95
2017/10/07 31 239 +42
2017/10/06 31 197 +31
2017/10/05 31 166 +636
2017/10/04 30 530 +172
2017/10/03 30 358 -241
2017/10/02 30 599 -676
2017/10/01 31 275 -314
2017/09/30 31 589 +44
2017/09/29 31 545 +526
2017/09/28 31 019 +596
2017/09/27 30 423 +225
2017/09/26 30 198 -29
2017/09/25 30 227 -627
2017/09/24 30 854 -74
2017/09/23 30 928 +200
2017/09/22 30 728 +259
2017/09/20 30 469 +203
2017/09/19 30 266 -99
2017/09/18 30 365 -91
2017/09/17 30 456 +235
2017/09/16 30 221 +131
2017/09/15 30 090 +454
2017/09/14 29 636 +621
2017/09/13 29 015 +131
2017/09/12 28 884 +37
2017/09/11 28 847 -439
2017/09/10 29 286 -30
2017/09/09 29 316 -37
2017/09/08 29 353 +148
2017/09/07 29 205 +309
2017/09/06 28 896 +142
2017/09/05 28 754 -346
2017/09/04 29 100 -171
2017/09/03 29 271 -248
2017/09/02 29 519 +35
2017/09/01 29 484 +290
2017/08/31 29 194 +438
2017/08/30 28 756 +123
2017/08/28 28 633 -388
2017/08/27 29 021 -102
2017/08/26 29 123 -186
2017/08/25 29 309 +261
2017/08/24 29 048 +677
2017/08/23 28 371 +329
2017/08/22 28 042

WIDGET FOR YOUR SITE

DOMAINS WITH THE NEAREST RANK

Domain Rank
helplavoro.it 32 639
bigfangroup.org 32 640
linear.com 32 641
bet365.com.au 32 642
learnpythonthehardway.org 32 643
freeonlinegames.com 32 644
battlepage.com 32 645
pajilleros.com 32 646
talentsprint.com 32 647
werally.com 32 648
ondvdreleases.com 32 649

DOMAINS WITH THE NEAREST RANK BY TLD .com

Domain Rank
87lou.com 32 633
bentley.com 32 635
humankinetics.com 32 637
wayup.com 32 638
linear.com 32 641
freeonlinegames.com 32 644
battlepage.com 32 645
pajilleros.com 32 646
talentsprint.com 32 647
werally.com 32 648
ondvdreleases.com 32 649